C/2021 P2 ( PanSTARRS )

Japanese version
Home page
Updated on September 18, 2021

---------------------------------------------------------------------

* Profile

Discovery Date August 7, 2021
Magnitude 21.5 mag
Discoverer Pan-STARRS 1 telescope (Haleakala)

* Orbital Elements

Epoch 2023 Jan. 16.0 TT = JDT 2459960.5
T 2023 Jan. 22.72010 TT                                 Rudenko
q   5.0691779            (2000.0)            P               Q
z  +0.0004869      Peri.   76.68572     +0.64298664     -0.71855835
 +/-0.0000696      Node    32.07870     -0.73653034     -0.67502043
e   0.9975319      Incl.  150.06346     +0.20997915     -0.16739568
From 35 observations 2021 June 19-Aug. 20, mean residual 0".2.

* Magnitudes Graph

        m1 = 9.0 + 5 log d + 10.0 log r

---------------------------------------------------------------------

The orbital elements are published on M.P.E.C. 2021-R75.
The magnitudes graphs are made with Comet for Windows.

---------------------------------------------------------------------

Copyright(C) Seiichi Yoshida (comet@aerith.net). All rights reserved.